map of HOQ home
Great Circle Mapper logo
HOQ - Airport
Location
City:  Hof, Bavaria, Germany
Name:Plauen
ICAO / IATA:EDQM / HOQ

Details
Type:Airport (Flugplatz, Airfield)
Use:Public/Civil
Latitude:5017'20"N (50.288836)
Longitude:1151'18"E (11.854919)
Datum:WGS 1984
Elevation:1960 ft (597 m)
Variation:2.9E (WMM2015 magnetic declination)
Runways:1
Longest:4856 × 98 ft (1480 × 30 m), paved

Time
Time Zone:UTC+1 (DST+2)
Local Time:

Weather
METAR:EDQM 181650Z 22011KT 2800 DZ BKN010 08/07 Q1012

Related Locations
Nearby:
Farthest:CHT: 11839 mi / 19054 km
Waitangi [Tuuta], Chatham Islands, NZ

Find:

   beyond  
but within

Other Information
Maps:
NOTAMs:
Links:
Sources:

  
flag of Germany
flag of Bavaria
  

Sectional Chart

Flight Planning
at skyvector.com

Satellite Image

Google Maps Satellite View

 

Copyright © 2004-2014 Karl L. Swartz. All rights reserved.
The Great Circle Mapper name and logo are trademarks of the Great Circle Mapper.
All other trademarks mentioned herein belong to their respective owners.
Please see credits for attibutions and further copyright information.

  Follow gcmap on Facebook Follow gcmap on Twitter

hCard Microformat

Geo Microformat